Flag for Germany Weather past 2 weeks in Neuburg an der Donau, Bavaria, Germany

Now
43 °F

Quite cool.


Feels Like: 39 °F
Forecast: 29 / 42 °F
Wind: 6 mph from Southwest

Location: Neuburg / Donau

Current Time: Dec 23, 2014 at 2:04:48 AM

Latest Report: Dec 23, 2014 at 1:20 AM


Visibility: N/A

Pressure: 30.21 "Hg

Humidity: 66%

Dew point: 32 °F

Location of Neuburg an der DonauLocation

Historic Weather in Neuburg an der Donau — Graph

°F

Neuburg an der Donau temperature yesterday

Maximum temperature yesterday: 46 °F (at 4:20 PM)
Minimum temperature yesterday: 39 °F (at 2:20 AM)
Average temperature yesterday: 42 °F

Past Weeks' High & Low Weather Summary

 TemperatureHumidityPressure
High54 °F (Dec 19, 12:20 AM)100% (Dec 8, 8:20 AM)30.48 "Hg (Dec 8, 8:20 AM)
Low28 °F (Dec 9, 2:20 AM)54% (Dec 12, 4:20 PM)29.74 "Hg (Dec 12, 8:20 PM)
Average41 °F87%30.08 "Hg
* Reported Dec 8 12:20 AM — Dec 23 12:20 AM, Neuburg an der Donau, Weather by CustomWeather, © 2014

Note: Actual official high and low records may vary slightly from our data, if they occured in-between our weather recording intervals... More about our weather records

Advertising

Neuburg an der Donau weather history for previous 24 hours

 ConditionsComfort  
Time TempWeatherWind HumidityBarometerVisibility
12:20 AM
Dec 23
43 °FQuite cool.7 mph71%30.24 "HgN/A
11:20 PM
Dec 22
43 °FQuite cool.5 mph76%30.24 "HgN/A
10:20 PM43 °FQuite cool.7 mph76%30.24 "HgN/A
9:20 PM45 °FQuite cool.7 mph71%30.24 "HgN/A
8:20 PM45 °FQuite cool.9 mph71%30.24 "HgN/A
7:20 PM45 °FQuite cool.14 mph71%30.21 "HgN/A
6:20 PM46 °FCool.14 mph62%30.21 "HgN/A
5:20 PM46 °FCool.10 mph66%30.18 "HgN/A
4:20 PM46 °FCool.9 mph66%30.21 "HgN/A
3:20 PM45 °FQuite cool.9 mph76%30.21 "HgN/A
2:20 PM45 °FQuite cool.12 mph71%30.24 "HgN/A
1:20 PM45 °FQuite cool.10 mph71%30.27 "HgN/A
12:20 PM43 °FQuite cool.10 mph76%30.27 "HgN/A
11:20 AM41 °FQuite cool.12 mph76%30.30 "HgN/A
10:20 AM41 °FQuite cool.9 mph76%30.30 "HgN/A
9:20 AM39 °FChilly.12 mph81%30.30 "HgN/A
8:20 AM39 °FChilly.10 mph81%30.30 "HgN/A
7:20 AM39 °FChilly.12 mph81%30.30 "HgN/A
6:20 AM39 °FChilly.10 mph81%30.30 "HgN/A
5:20 AM39 °FChilly.10 mph81%30.33 "HgN/A
4:20 AM39 °FChilly.10 mph81%30.33 "HgN/A
3:20 AM39 °FChilly.8 mph81%30.33 "HgN/A
2:20 AM39 °FChilly.9 mph81%30.36 "HgN/A
Weather by CustomWeather, © 2014

See weather overviewHow to use our weather pages